Wind_Speed
23 22 23 24 25 26 27 27 25 25 23 22 23 24 25 24 24 23 22 18 17 18 16 11 6 5 5 8 2 3 8 16 16 10 13 12 13 14 10 2 8 10 11 4 3 8 11
21 22 23 25 25 26 26 27 27 25 24 23 23 25 24 25 26 24 22 17 16 14 13 7 3 5 8 10 3 7 12 15 13 14 11 11 10 7 11 6 3 12 5 2 4 7 3
23 24 24 24 25 25 27 27 27 26 26 24 25 27 25 25 25 25 21 15 11 9 7 2 3 4 11 4 5 10 14 15 11 10 8 10 7 10 4 6 4 3 2 2 7 15 15
22 22 23 24 25 25 26 26 27 27 27 26 26 27 26 26 26 25 16 10 6 5 4 2 2 5 2 5 7 12 11 12 9 8 8 4 9 15 13 6 7 5 3 3 20 10 8
22 23 25 26 26 26 27 27 27 28 28 26 26 27 26 27 25 23 10 6 3 3 2 1 4 8 6 7 11 14 13 12 11 7 7 6 11 14 11 11 14 11 7 10 15 13 10
23 24 26 26 27 27 28 28 26 27 30 28 26 26 25 26 25 16 6 4 6 3 4 6 9 7 10 12 12 15 11 6 10 9 8 10 9 12 13 14 14 16 20 15 7 6 11
24 25 25 26 28 27 28 26 24 26 29 29 26 26 25 26 24 8 4 4 5 6 13 8 6 4 11 9 9 13 13 10 9 12 11 15 11 15 18 19 6 12 5 1 6 10 8
24 24 25 25 26 28 29 25 25 27 29 30 26 27 29 25 18 4 7 6 6 5 6 5 4 6 2 12 12 13 16 11 10 13 14 11 15 15 18 16 14 10 14 25 15 8 8
25 26 26 27 28 29 28 26 26 27 29 28 26 26 30 24 9 4 8 5 4 5 7 8 7 9 11 12 12 15 15 16 12 15 16 13 13 14 5 7 9 16 14 11 8 13 11
25 26 27 28 28 29 29 26 27 29 31 27 26 28 29 22 4 2 6 1 5 2 6 11 13 6 7 8 5 13 19 9 11 15 12 15 4 4 10 15 15 17 15 5 12 10 14
25 26 26 27 28 28 29 28 29 31 33 27 27 30 28 14 10 10 5 3 4 5 6 15 12 13 16 13 14 11 7 8 12 12 10 14 10 12 13 15 13 15 6 11 10 14 15
26 26 26 27 28 28 28 28 29 32 34 28 28 31 21 2 6 7 4 5 5 7 2 9 10 12 14 12 9 11 11 10 7 10 12 10 5 11 14 14 9 14 3 10 14 14 14
26 25 26 27 27 27 26 28 29 32 34 29 30 26 9 5 4 2 6 8 7 8 8 11 14 16 18 12 11 16 15 14 10 12 12 13 11 14 9 12 11 15 11 9 12 13 14
26 24 25 27 28 24 24 26 28 31 34 32 32 11 6 9 5 4 10 9 8 3 6 5 11 14 15 13 13 15 13 12 8 9 10 12 14 16 13 18 12 15 18 12 16 12 15
26 23 23 25 25 20 22 24 27 30 34 34 22 4 8 3 6 7 9 10 6 3 4 9 11 13 10 10 5 11 13 13 6 7 9 6 3 14 9 12 15 16 17 20 21 19 9
24 21 19 22 20 19 20 24 26 30 33 29 15 10 6 5 5 9 9 15 2 2 3 8 15 14 13 16 11 12 9 4 6 5 9 5 5 10 11 7 10 16 5 14 11 16 15
22 19 18 17 18 17 19 22 25 28 32 19 8 5 9 7 6 7 11 9 4 5 8 9 14 11 12 12 15 14 11 7 2 4 8 11 10 11 9 11 15 12 12 12 16 14 13
19 18 16 15 15 15 18 20 22 25 30 11 10 6 9 7 8 9 12 4 3 11 9 6 6 11 10 9 11 10 7 4 1 6 11 11 7 9 15 7 6 7 11 18 9 14 11
19 16 12 13 14 15 18 17 18 19 21 12 5 8 7 9 8 10 8 5 9 7 10 10 7 5 4 8 4 4 7 2 1 6 7 3 9 8 9 11 7 12 11 9 12 12 12
15 13 13 13 15 17 18 16 16 15 15 8 5 5 6 7 12 13 9 12 11 5 4 4 4 7 9 8 3 6 7 4 1 0 6 4 15 14 6 6 6 17 7 9 11 10 11
17 16 15 17 17 15 15 14 13 14 11 6 4 5 5 5 11 12 15 12 15 10 8 9 8 11 11 8 8 9 9 5 8 6 5 6 13 13 17 5 8 3 9 9 11 12 13
19 19 19 19 17 16 13 13 13 12 8 5 5 6 4 11 10 11 10 15 16 16 13 13 10 8 6 8 7 5 9 10 8 8 11 11 12 10 12 10 11 12 11 11 11 11 10
20 19 18 18 17 16 15 12 11 10 4 6 7 9 6 10 14 13 14 16 16 12 6 6 10 9 9 6 3 5 4 6 5 7 8 9 10 8 15 17 15 17 14 14 14 14 14
21 19 18 17 17 16 14 13 11 10 10 6 7 6 6 12 13 14 17 16 13 11 11 8 7 10 8 8 3 5 5 5 5 6 9 7 7 11 11 13 20 7 12 6 10 15 11
21 20 18 17 18 18 15 14 13 13 13 14 8 3 4 11 14 12 17 13 12 7 8 8 6 8 8 8 7 6 6 6 8 4 7 9 8 9 13 13 14 10 6 9 11 13 16
24 22 19 18 18 17 17 16 15 15 16 20 10 10 3 6 11 12 9 11 8 11 10 8 5 7 9 6 7 8 8 9 9 8 7 9 6 8 8 13 17 15 10 7 1 10 13
25 24 23 22 21 20 18 18 18 16 16 21 6 13 2 4 13 8 6 10 12 13 10 11 9 6 9 6 6 8 7 2 5 10 8 10 8 12 11 12 8 9 3 1 11 1 6
24 23 23 22 23 21 21 20 20 17 16 24 8 17 9 2 6 10 12 12 16 13 9 12 9 9 9 6 4 5 5 7 8 1 5 9 7 9 9 13 13 8 5 7 5 3 5
22 23 23 23 22 22 23 21 18 17 19 26 7 18 15 2 3 11 17 14 13 10 8 13 4 13 6 5 3 6 4 3 8 6 6 5 5 7 8 6 5 5 7 5 4 4 4
Wind_Direction
13 9 8 8 7 6 5 4 2 4 1 357 354 352 350 347 343 341 337 329 322 317 311 284 287 304 296 219 51 10 153 153 162 200 218 224 221 238 256 186 208 331 98 29 169 181 152
9 6 5 3 1 359 359 1 360 357 357 354 351 349 348 347 342 338 334 327 323 325 323 287 257 279 246 241 101 134 152 167 190 199 207 230 244 275 304 273 222 144 72 49 254 138 167
5 2 359 356 355 354 354 354 356 355 352 350 348 347 347 346 341 337 334 327 328 339 349 323 233 259 269 53 159 162 167 188 177 207 201 235 295 260 259 209 77 72 201 89 246 173 157
359 357 354 352 352 350 349 349 350 352 351 347 346 346 349 346 341 336 329 327 331 348 30 8 252 250 23 133 166 167 173 183 197 218 257 266 234 263 265 72 197 139 333 170 272 200 171
355 353 353 352 351 348 347 345 345 348 349 347 345 344 346 345 341 335 327 320 318 329 331 1 237 225 141 159 187 177 179 177 182 200 214 257 228 237 220 235 198 166 161 235 214 187 171
352 353 351 351 349 346 343 340 342 343 344 345 344 344 343 342 339 335 321 270 269 284 271 249 264 255 162 192 164 170 189 194 187 181 186 204 216 222 237 222 214 186 163 211 206 191 237
350 348 350 353 348 345 343 343 343 341 343 341 341 341 341 340 336 323 315 240 207 198 225 309 135 332 133 123 151 183 174 190 203 202 201 204 214 213 213 225 248 309 163 36 187 223 262
344 346 347 346 345 345 348 350 347 344 342 340 339 340 338 338 333 290 286 275 37 349 278 192 241 267 220 177 181 181 183 202 203 211 218 192 224 224 236 227 251 219 231 186 198 204 256
341 342 344 343 344 345 350 351 348 344 342 338 339 338 335 337 325 257 270 43 335 313 247 142 198 199 181 207 188 174 198 215 201 225 203 213 206 236 177 231 236 240 240 181 209 176 235
336 338 338 340 340 341 347 348 346 344 341 338 338 338 333 336 281 324 228 151 312 291 258 144 180 172 183 241 170 154 206 206 213 225 196 235 166 141 210 230 218 237 237 282 184 224 215
332 332 332 334 335 334 339 345 346 344 343 337 336 336 330 323 306 255 61 302 306 240 246 146 147 138 168 214 126 191 195 212 234 224 204 214 163 205 219 221 219 243 230 210 249 243 265
326 326 327 329 330 329 332 340 344 345 343 335 334 333 328 310 229 266 255 284 236 235 183 154 147 187 184 209 197 143 182 247 304 212 222 264 204 214 223 218 220 247 163 249 244 250 231
318 320 324 325 326 323 325 333 341 343 342 335 334 327 307 272 9 222 259 235 222 258 126 150 179 178 196 186 158 172 180 192 188 198 200 209 195 223 252 199 197 235 207 214 219 226 240
313 314 317 322 324 320 322 330 338 341 341 335 335 318 294 231 270 242 250 232 253 10 183 118 181 191 205 171 175 181 188 180 258 257 193 192 192 199 193 233 193 217 226 229 211 229 231
319 315 313 321 324 322 323 328 335 340 341 336 339 244 234 178 220 244 253 232 237 174 108 189 196 197 184 185 213 194 202 208 154 255 314 194 163 165 199 222 245 196 227 252 268 277 280
321 319 317 321 324 324 326 330 334 339 341 339 325 269 178 181 196 246 249 258 41 336 241 220 198 199 186 200 212 205 189 66 154 257 289 355 152 188 182 241 235 262 288 225 241 257 259
323 318 316 321 319 321 327 330 333 338 341 334 282 243 126 173 226 238 243 243 163 169 227 222 221 185 225 194 220 203 184 120 244 201 265 283 249 151 151 209 210 202 233 242 250 219 249
325 321 320 323 321 324 326 329 330 338 344 344 287 251 135 179 235 230 243 222 352 168 197 200 300 221 206 182 223 199 173 55 265 288 222 232 280 183 204 121 326 313 225 225 236 231 249
331 325 316 319 321 322 327 330 331 339 359 331 281 296 152 212 246 233 213 219 217 185 197 192 178 249 299 203 162 247 92 82 240 231 354 294 248 228 156 175 210 249 232 268 261 267 251
338 333 322 319 321 320 323 327 330 336 354 338 282 269 190 212 264 286 255 224 199 280 152 266 143 176 181 182 212 189 155 163 139 340 347 306 266 280 275 17 337 194 210 232 257 220 239
323 320 315 314 315 315 317 321 323 328 346 327 243 267 9 251 228 240 262 229 203 178 216 202 199 207 207 196 193 194 166 151 197 145 235 252 262 272 273 129 284 309 200 203 239 263 274
309 307 305 303 308 310 308 307 308 310 326 263 293 310 329 269 287 275 234 245 222 188 189 196 242 198 175 237 216 236 204 194 203 188 234 237 253 278 263 258 240 254 227 245 257 271 274
306 304 304 300 296 299 296 289 297 289 285 291 283 276 266 281 243 240 240 222 227 182 214 265 216 175 211 117 60 7 2 338 21 252 232 249 254 220 253 246 236 243 246 253 255 245 248
305 303 306 300 294 291 292 281 279 267 237 277 303 304 270 255 247 246 236 223 217 184 193 190 193 217 86 104 168 215 196 195 218 231 274 239 246 269 263 263 244 226 265 292 285 239 251
301 296 297 298 293 287 288 288 275 264 249 229 252 271 264 261 273 247 246 229 216 134 151 183 82 74 147 172 194 170 182 189 205 205 234 236 266 244 247 246 261 246 176 235 247 250 345
295 293 290 293 293 292 288 284 279 272 257 231 237 226 316 293 246 307 249 236 189 183 152 103 145 150 183 190 215 209 190 199 174 175 225 232 233 275 237 252 258 62 60 19 327 234 23
289 293 287 283 283 282 282 279 275 271 252 226 191 200 152 247 267 331 245 234 211 165 169 152 153 168 215 232 224 217 208 226 189 204 170 207 230 229 232 252 257 72 75 192 234 58 37
287 286 288 284 279 278 279 276 268 258 246 214 200 184 167 259 315 310 304 285 227 201 160 161 179 194 194 177 192 258 280 174 244 278 175 213 203 226 232 259 239 4 252 270 50 76 27
293 287 284 283 279 277 276 271 263 248 235 200 159 188 189 207 258 271 289 305 311 334 181 157 271 175 197 145 163 261 216 153 222 188 180 252 273 333 336 36 72 53 38 46 13 350 13
Height
850 846 843 839 835 831 826 822 818 814 811 807 803 798 793 789 784 780 777 774 770 768 765 764 763 763 761 752 742 748 748 750 753 754 749 743 741 737 739 729 726 745 726 724 721 721 718
851 847 843 839 835 831 827 823 818 814 810 806 802 797 793 788 783 778 774 771 768 766 764 762 762 761 760 751 748 749 751 753 750 749 745 742 737 729 731 729 734 736 734 733 729 726 726
851 847 843 840 836 831 827 822 818 814 809 804 800 796 792 787 781 776 772 769 766 764 764 763 762 762 752 745 748 749 751 751 748 746 744 744 740 738 727 734 727 737 748 744 731 727 732
851 848 844 839 836 831 826 822 817 813 808 803 798 793 789 785 780 774 770 767 766 764 763 762 762 763 742 749 749 750 748 749 750 749 747 746 747 740 732 724 734 754 754 771 745 727 725
852 848 843 839 834 830 825 820 815 810 806 801 797 791 786 782 777 772 769 767 765 764 763 762 761 757 744 751 749 748 748 747 748 748 749 749 746 742 736 745 747 759 783 763 751 723 724
851 847 842 838 833 828 823 818 813 808 803 798 794 789 784 779 774 769 767 766 765 764 763 763 760 756 744 744 742 745 746 745 746 745 747 747 745 747 742 744 758 751 762 755 764 739 728
850 846 842 837 832 827 821 816 811 807 802 797 792 787 782 777 772 768 766 765 764 761 756 743 738 741 736 740 746 745 747 745 743 744 751 745 756 756 740 731 724 736 740 772 757 736 742
849 844 840 835 830 825 819 814 810 805 801 795 790 785 780 775 771 768 765 753 757 759 749 743 744 744 741 739 745 741 746 749 748 754 741 752 756 731 725 725 731 739 741 783 766 741 740
847 842 837 833 828 823 817 813 808 803 799 794 789 783 778 773 769 768 761 758 760 758 751 744 740 738 740 740 738 740 742 741 748 750 744 749 736 723 734 744 748 742 739 739 747 745 743
845 840 835 831 826 821 816 812 807 802 797 792 787 782 776 771 771 763 758 761 759 759 751 749 744 736 738 733 739 732 735 738 743 749 742 744 724 738 749 751 746 751 728 732 741 754 769
842 837 832 828 824 819 814 810 805 800 795 790 785 780 774 771 768 761 760 760 759 757 765 736 736 730 729 736 731 740 734 736 746 744 742 747 742 750 756 748 736 746 721 739 745 750 746
838 834 830 826 822 817 812 807 803 798 793 787 782 776 771 770 769 762 762 760 758 766 762 744 732 740 741 735 735 735 740 735 728 740 744 736 729 738 738 733 736 734 745 750 747 749 769
835 831 827 823 819 815 810 806 801 796 791 784 778 772 768 769 759 762 762 756 761 757 727 742 741 733 736 739 740 741 744 748 750 765 762 746 750 738 734 746 742 746 757 780 786 777 775
830 827 824 820 816 812 808 805 800 795 789 781 774 769 767 767 764 763 760 756 766 730 736 722 727 732 739 734 740 740 743 745 738 735 734 757 767 744 738 740 749 750 747 762 791 777 761
826 822 820 817 813 810 807 803 798 793 787 779 771 766 765 762 764 764 757 756 740 733 726 738 735 742 742 740 741 742 742 739 737 737 751 749 747 728 732 732 733 745 760 731 745 732 749
821 818 816 814 810 808 804 801 797 792 786 780 774 761 754 761 762 761 756 750 733 728 730 727 745 736 750 749 750 744 745 740 747 743 736 738 756 738 738 735 733 737 727 758 749 780 780
817 815 813 811 808 806 803 800 796 791 785 780 772 753 753 759 760 755 752 732 731 731 731 733 732 742 737 744 745 746 746 752 750 745 741 736 744 748 744 753 746 749 753 745 733 745 763
814 812 810 808 806 804 801 798 795 790 784 777 768 756 753 757 758 740 738 729 748 732 732 734 729 728 738 742 745 745 753 756 758 749 754 739 739 751 748 728 728 727 736 739 754 765 741
812 809 808 807 805 802 799 797 794 791 787 785 764 748 750 753 755 737 730 735 735 734 733 735 739 737 737 744 759 750 755 761 757 753 755 746 751 757 756 747 741 749 740 737 732 732 748
810 808 806 805 803 801 798 796 794 792 789 788 771 753 743 747 741 741 732 740 745 738 736 735 737 738 745 752 749 762 763 764 761 755 772 764 749 749 753 753 739 754 745 744 742 756 752
808 806 804 802 799 797 796 795 793 791 789 789 767 753 747 743 741 739 734 732 738 749 739 738 745 739 744 754 755 759 755 763 762 772 764 758 767 750 742 746 748 743 747 748 757 749 753
805 803 801 799 796 794 792 791 791 790 789 787 770 759 750 749 740 742 741 736 735 735 741 744 745 740 742 750 750 754 755 759 763 759 759 751 768 759 763 745 750 757 751 753 753 750 750
800 798 795 794 793 790 789 789 788 788 789 780 770 771 769 754 744 741 736 735 734 727 740 732 738 747 750 748 750 750 749 751 754 764 763 762 761 766 776 753 752 768 755 753 751 747 750
794 792 790 788 788 787 785 784 784 784 786 787 780 778 767 755 740 736 732 729 732 730 745 741 740 748 758 755 759 755 754 759 765 765 760 771 772 766 770 759 779 750 736 738 745 740 740
789 787 784 783 783 782 781 780 781 781 782 782 783 783 772 759 741 735 733 732 732 735 742 750 750 751 755 760 764 772 771 773 768 766 769 763 767 771 778 772 758 746 747 757 758 759 748
783 781 779 778 777 777 776 776 776 776 777 778 778 780 778 767 750 740 740 738 740 744 749 758 760 757 757 758 762 778 772 764 773 774 767 765 771 777 771 781 779 763 759 756 759 776 778
775 774 772 771 771 770 769 769 769 770 771 773 774 775 780 778 755 750 747 742 733 736 747 762 765 768 761 763 768 766 755 753 766 774 779 775 777 778 773 777 762 762 766 766 785 790 791
767 766 764 763 762 762 762 761 762 763 764 766 769 771 773 771 765 756 750 748 739 737 744 756 764 760 765 771 782 764 756 757 763 758 767 771 776 769 769 774 779 772 769 779 789 786 792
759 758 756 755 754 753 753 753 753 755 756 759 764 767 771 772 770 764 757 750 743 736 739 748 747 750 748 762 777 765 763 756 763 779 770 782 767 770 771 777 778 778 784 788 788 790 793